EW9273 Weather Reports


time (UTC)temp
C
wind
direction
speed
KPH
gust
KPH
rain 1hr
cm
rain 24hr
cm
rain mn
cm
humidity
%
barometer
mb
20260506135008 23 61 0.0 4.8 0.00 0.00 0.00 85 1006.1
20260506134508 23 167 0.0 6.4 0.00 0.00 0.00 85 1006.0
20260506134007 23 126 0.0 8.0 0.00 0.00 0.00 85 1005.9
20260506133507 23 69 0.0 8.0 0.00 0.00 0.00 85 1005.8
20260506133008 23 65 1.6 9.7 0.00 0.00 0.00 85 1005.9
20260506132506 23 100 1.6 9.7 0.00 0.00 0.00 85 1005.8
20260506132010 23 98 1.6 9.7 0.00 0.00 0.00 85 1005.7
20260506131505 23 71 0.0 6.4 0.00 0.00 0.00 85 1005.8
20260506131005 23 98 0.0 6.4 0.00 0.00 0.00 85 1005.7
20260506130505 23 79 1.6 6.4 0.00 0.00 0.00 85 1005.7
20260506130012 23 65 0.0 6.4 0.00 0.00 0.00 85 1005.7
20260506125504 23 63 0.0 6.4 0.00 0.00 0.00 85 1005.7
20260506125004 23 82 0.0 6.4 0.00 0.00 0.00 85 1005.7
20260506124503 23 57 0.0 3.2 0.00 0.00 0.00 85 1005.8
20260506124002 23 57 0.0 4.8 0.00 0.00 0.00 85 1005.8
20260506123503 23 34 0.0 4.8 0.00 0.00 0.00 85 1005.9
20260506123002 23 152 0.0 3.2 0.00 0.00 0.00 85 1005.8
20260506122502 23 152 0.0 4.8 0.00 0.00 0.00 85 1005.8
20260506122059 23 77 0.0 4.8 0.00 0.00 0.00 85 1005.7
20260506121613 23 77 0.0 3.2 0.00 0.00 0.00 85 1005.6
20260506121059 23 77 0.0 3.2 0.00 0.00 0.00 85 1005.6
20260506120558 23 77 0.0 3.2 0.00 0.00 0.00 85 1005.5
20260506120119 23 77 0.0 4.8 0.00 0.00 0.00 85 1005.6
20260506115557 23 77 0.0 4.8 0.00 0.00 0.00 85 1005.5
20260506115057 23 134 0.0 6.4 0.00 0.00 0.00 85 1005.6
20260506114557 23 69 1.6 6.4 0.00 0.00 0.00 84 1005.5
20260506114055 23 60 0.0 3.2 0.00 0.00 0.00 84 1005.5
20260506113555 23 60 0.0 3.2 0.00 0.00 0.00 84 1005.5
20260506113103 23 190 0.0 3.2 0.00 0.00 0.00 84 1005.5
20260506112555 23 190 0.0 3.2 0.00 0.00 0.00 84 1005.5
20260506112054 23 190 0.0 3.2 0.00 0.00 0.00 84 1005.5
20260506111555 23 190 0.0 3.2 0.00 0.00 0.00 84 1005.5
20260506111054 23 190 0.0 0.0 0.00 0.00 0.00 84 1005.5
20260506110556 23 190 0.0 1.6 0.00 0.00 0.00 84 1005.5
20260506110055 23 190 0.0 1.6 0.00 0.00 0.00 84 1005.5
20260506105554 23 190 0.0 0.0 0.00 0.00 0.00 84 1005.5
20260506105054 23 190 0.0 0.0 0.00 0.00 0.00 84 1005.3
20260506104554 23 190 0.0 3.2 0.00 0.00 0.00 84 1005.3
20260506104052 23 190 0.0 4.8 0.00 0.00 0.00 83 1005.2
20260506103552 23 190 0.0 3.2 0.00 0.00 0.00 83 1005.3
20260506103054 23 190 0.0 4.8 0.00 0.00 0.00 83 1005.3
20260506102552 23 190 1.6 4.8 0.00 0.00 0.00 83 1005.3
20260506102054 23 190 0.0 4.8 0.00 0.00 0.00 83 1005.3
20260506101552 23 190 0.0 4.8 0.00 0.00 0.00 83 1005.2
20260506101050 23 190 1.6 8.0 0.00 0.00 0.00 83 1005.3
20260506100550 23 155 3.2 8.0 0.00 0.00 0.00 83 1005.2
20260506100050 23 173 1.6 9.7 0.00 0.00 0.00 83 1005.1
20260506095550 23 176 3.2 14.5 0.00 0.00 0.00 83 1005.1
20260506095051 23 150 1.6 14.5 0.00 0.00 0.00 82 1005.3
20260506094550 23 137 3.2 8.0 0.00 0.00 0.00 82 1005.2
20260506094048 23 154 1.6 11.3 0.00 0.00 0.00 82 1005.2
20260506093548 23 108 4.8 11.3 0.00 0.00 0.00 82 1005.1
20260506093051 23 162 1.6 8.0 0.00 0.00 0.00 82 1005.1
20260506092548 23 122 0.0 12.9 0.00 0.00 0.00 82 1005.1
20260506092048 23 168 3.2 12.9 0.00 0.00 0.00 82 1005.0
20260506091548 23 154 4.8 12.9 0.00 0.00 0.00 82 1005.0
20260506091047 23 165 3.2 11.3 0.00 0.00 0.00 82 1005.0
20260506090546 23 185 6.4 12.9 0.00 0.00 0.00 82 1005.1
20260506090047 23 176 3.2 12.9 0.00 0.00 0.00 82 1005.2
20260506085546 24 164 4.8 14.5 0.00 0.00 0.00 82 1005.1
20260506085046 24 169 4.8 11.3 0.00 0.00 0.00 82 1005.1
20260506084545 24 187 4.8 14.5 0.00 0.00 0.00 81 1005.2
20260506084044 24 174 6.4 14.5 0.00 0.00 0.00 81 1005.2
20260506083544 24 179 6.4 12.9 0.00 0.00 0.00 81 1005.2
20260506083046 24 140 3.2 12.9 0.00 0.00 0.00 81 1005.3
20260506082545 24 184 6.4 12.9 0.00 0.00 0.00 81 1005.3
20260506082043 24 141 3.2 11.3 0.00 0.00 0.00 81 1005.3
20260506081548 24 155 4.8 14.5 0.00 0.00 0.00 81 1005.4
20260506081042 24 167 3.2 14.5 0.00 0.00 0.00 81 1005.4
20260506080545 24 172 1.6 14.5 0.00 0.00 0.00 81 1005.3
20260506073039 24 133 0.0 11.3 0.00 0.00 0.00 81 1005.6
20260506072538 24 161 1.6 11.3 0.00 0.00 0.00 81 1005.7
20260506072038 24 161 3.2 12.9 0.00 0.00 0.00 81 1005.9
20260506071548 24 190 3.2 12.9 0.00 0.00 0.00 81 1005.7
20260506071038 24 157 3.2 16.1 0.00 0.00 0.00 81 1005.7
20260506070538 24 172 6.4 16.1 0.00 0.00 0.00 81 1005.7
20260506062034 24 252 3.2 12.9 0.00 0.00 0.00 82 1005.7
20260506061536 24 151 3.2 8.0 0.00 0.00 0.00 82 1005.8
20260506061034 24 165 1.6 11.3 0.00 0.00 0.00 82 1005.9
20260506060534 24 166 4.8 11.3 0.00 0.00 0.00 82 1005.9
20260506051028 24 138 1.6 9.7 0.00 0.00 0.00 81 1005.7
20260506050527 24 179 3.2 14.5 0.00 0.00 0.00 81 1005.7
20260506045026 24 117 4.8 11.3 0.00 0.00 0.00 81 1005.8
20260506044535 24 136 4.8 9.7 0.00 0.00 0.00 81 1005.8
20260506044024 25 108 1.6 6.4 0.00 0.00 0.00 81 1005.8
20260506043527 25 108 3.2 11.3 0.00 0.00 0.00 81 1005.8
20260506043027 25 113 3.2 11.3 0.00 0.00 0.00 81 1005.7
20260506042524 25 144 3.2 12.9 0.00 0.00 0.00 81 1005.8
20260506042023 25 46 1.6 14.5 0.00 0.00 0.00 81 1005.7
20260506041525 25 126 3.2 14.5 0.00 0.00 0.00 80 1005.6
20260506041023 25 182 1.6 8.0 0.00 0.00 0.00 80 1005.5
20260506040523 25 135 3.2 14.5 0.00 0.00 0.00 80 1005.4
20260506040023 25 152 4.8 14.5 0.00 0.00 0.00 80 1005.4
20260506035523 25 157 1.6 9.7 0.00 0.00 0.00 80 1005.3
20260506035023 25 151 1.6 11.3 0.00 0.00 0.00 79 1005.1
20260506034523 25 128 3.2 16.1 0.00 0.00 0.00 79 1005.1
20260506034022 25 132 4.8 17.7 0.00 0.00 0.00 79 1005.0
20260506033522 25 170 6.4 17.7 0.00 0.00 0.00 79 1005.0
20260506033022 25 145 3.2 16.1 0.00 0.00 0.00 78 1005.0
20260506032522 25 155 3.2 16.1 0.00 0.00 0.00 78 1004.9
20260506032022 25 153 4.8 12.9 0.00 0.00 0.00 78 1004.9
20260506031524 25 169 1.6 6.4 0.00 0.00 0.00 78 1005.1
20260506031022 25 38 1.6 12.9 0.00 0.00 0.00 78 1004.9
20260506030521 25 157 4.8 17.7 0.00 0.00 0.00 77 1004.8
20260506030022 26 123 4.8 12.9 0.00 0.00 0.00 77 1004.7
20260506025525 26 94 1.6 19.3 0.00 0.00 0.00 77 1004.7
20260506025021 26 165 6.4 19.3 0.00 0.00 0.00 76 1004.5
20260506024530 26 135 3.2 9.7 0.00 0.00 0.00 76 1004.4
20260506024020 26 135 3.2 8.0 0.00 0.00 0.00 76 1004.4
20260506023520 26 97 0.0 8.0 0.00 0.00 0.00 76 1004.5
20260506023020 26 157 3.2 8.0 0.00 0.00 0.00 75 1004.4
20260506022520 26 132 1.6 8.0 0.00 0.00 0.00 75 1004.4
20260506022020 26 143 1.6 8.0 0.00 0.00 0.00 75 1004.3
20260506021520 26 105 0.0 16.1 0.00 0.00 0.00 75 1004.3
20260506021020 27 113 3.2 16.1 0.00 0.00 0.00 75 1004.0
20260506020523 27 85 1.6 16.1 0.00 0.00 0.00 74 1003.9
20260506020019 27 117 4.8 16.1 0.00 0.00 0.00 74 1003.8
20260506015521 27 126 3.2 19.3 0.00 0.00 0.00 73 1003.7
20260506015019 27 95 4.8 19.3 0.00 0.00 0.00 73 1003.8
20260506014519 27 119 3.2 16.1 0.00 0.00 0.00 72 1003.7
20260506014018 27 70 1.6 16.1 0.00 0.00 0.00 72 1003.7
20260506013518 27 46 3.2 16.1 0.00 0.00 0.00 71 1003.6
20260506013022 28 92 3.2 12.9 0.00 0.00 0.00 71 1003.5
20260506012518 28 88 1.6 9.7 0.00 0.00 0.00 70 1003.4
20260506012017 28 167 3.2 9.7 0.00 0.00 0.00 70 1003.4
20260506011517 28 88 1.6 16.1 0.00 0.00 0.00 69 1003.3
20260506011018 28 71 4.8 16.1 0.00 0.00 0.00 69 1003.2
20260506010516 28 81 4.8 11.3 0.00 0.00 0.00 68 1003.1
20260506010017 28 102 3.2 8.0 0.00 0.00 0.00 68 1003.0
20260506005516 28 106 1.6 9.7 0.00 0.00 0.00 68 1002.9
20260506005020 28 92 1.6 9.7 0.00 0.00 0.00 68 1002.9
20260506004516 28 115 1.6 6.4 0.00 0.00 0.00 68 1002.9
20260506004015 28 74 1.6 14.5 0.00 0.00 0.00 68 1002.9
20260506003515 28 159 4.8 14.5 0.00 0.00 0.00 67 1002.9
20260506003015 29 117 1.6 8.0 0.00 0.00 0.00 67 1002.9
20260506002514 29 161 0.0 9.7 0.00 0.00 0.00 67 1002.9
20260506002014 29 100 1.6 9.7 0.00 0.00 0.00 67 1002.9
20260506001516 29 88 3.2 9.7 0.00 0.00 0.00 67 1002.8
20260506001014 29 92 3.2 14.5 0.00 0.00 0.00 67 1002.8
20260506000514 29 112 3.2 14.5 0.00 0.00 0.00 66 1002.7
20260506000013 30 78 1.6 11.3 0.00 0.00 0.00 66 1002.7
20260505235513 30 59 3.2 16.1 0.00 0.00 0.00 65 1002.6
20260505235015 30 70 1.6 14.5 0.00 0.00 0.00 65 1002.6
20260505234527 30 355 3.2 14.5 0.00 0.00 0.00 65 1002.5
20260505234011 30 74 4.8 11.3 0.00 0.00 0.00 64 1002.5
20260505233511 30 71 0.0 6.4 0.00 0.00 0.00 64 1002.5
20260505233016 30 104 0.0 6.4 0.00 0.00 0.00 64 1002.6
20260505232512 30 97 1.6 6.4 0.00 0.00 0.00 64 1002.5
20260505232012 30 94 1.6 11.3 0.00 0.00 0.00 63 1002.5
20260505231514 30 106 3.2 11.3 0.00 0.00 0.00 63 1002.5
20260505231011 31 69 1.6 9.7 0.00 0.00 0.00 63 1002.5
20260505230513 31 101 3.2 8.0 0.00 0.00 0.00 63 1002.5
20260505230014 31 167 1.6 9.7 0.00 0.00 0.00 63 1002.5
20260505225511 31 138 3.2 11.3 0.00 0.00 0.00 63 1002.4
20260505225010 31 73 4.8 12.9 0.00 0.00 0.00 63 1002.4
20260505224510 30 157 6.4 12.9 0.00 0.00 0.00 62 1002.4
20260505224010 30 143 4.8 16.1 0.00 0.00 0.00 62 1002.5
20260505223508 30 186 6.4 16.1 0.00 0.00 0.00 62 1002.5
20260505223011 30 168 3.2 11.3 0.00 0.00 0.00 62 1002.6
20260505222507 30 175 3.2 14.5 0.00 0.00 0.00 63 1002.5
20260505222007 30 123 6.4 14.5 0.00 0.00 0.00 62 1002.7
20260505221507 30 149 6.4 12.9 0.00 0.00 0.00 63 1002.7
20260505221006 30 250 3.2 8.0 0.00 0.00 0.00 62 1002.9
20260505220505 30 140 3.2 9.7 0.00 0.00 0.00 63 1002.8
20260505220009 30 117 1.6 16.1 0.00 0.00 0.00 64 1002.9
20260505215505 30 105 4.8 16.1 0.00 0.00 0.00 63 1002.8
20260505215006 30 142 4.8 14.5 0.00 0.00 0.00 64 1002.8
20260505214504 29 188 4.8 12.9 0.00 0.00 0.00 65 1003.0
20260505214002 30 181 6.4 17.7 0.00 0.00 0.00 64 1003.0
20260505213503 30 165 6.4 17.7 0.00 0.00 0.00 63 1003.2
20260505213001 30 138 3.2 16.1 0.00 0.00 0.00 62 1003.4
20260505212603 30 131 3.2 16.1 0.00 0.00 0.00 64 1003.5
20260505212100 30 188 4.8 11.3 0.00 0.00 0.00 64 1003.5
20260505211614 30 167 3.2 16.1 0.00 0.00 0.00 64 1003.6
20260505211058 30 159 6.4 16.1 0.00 0.00 0.00 63 1003.7
20260505210558 30 167 0.0 17.7 0.00 0.00 0.00 64 1003.7
20260505210058 29 173 8.0 19.3 0.00 0.00 0.00 64 1003.8
20260505205558 29 178 8.0 19.3 0.00 0.00 0.00 64 1003.8
20260505205058 30 160 3.2 14.5 0.00 0.00 0.00 63 1003.9
20260505204555 30 133 3.2 12.9 0.00 0.00 0.00 65 1003.9
20260505204056 29 250 6.4 12.9 0.00 0.00 0.00 64 1004.1
20260505203553 29 144 6.4 12.9 0.00 0.00 0.00 65 1004.3
20260505203054 30 123 4.8 12.9 0.00 0.00 0.00 64 1004.3
20260505202552 30 166 4.8 11.3 0.00 0.00 0.00 65 1004.4
20260505202055 28 185 0.0 12.9 0.00 0.00 0.00 67 1004.4
20260505201605 28 153 4.8 12.9 0.00 0.00 0.00 67 1004.6
20260505201052 28 147 3.2 14.5 0.00 0.00 0.00 67 1004.5
20260505200551 28 177 4.8 14.5 0.00 0.00 0.00 66 1004.6
20260505195552 28 182 1.6 8.0 0.00 0.00 0.00 67 1004.7
20260505195049 28 155 0.0 11.3 0.00 0.00 0.00 68 1004.7
20260505194600 28 126 1.6 11.3 0.00 0.00 0.00 68 1004.8
20260505194048 28 90 3.2 9.7 0.00 0.00 0.00 68 1004.9
20260505193548 28 138 3.2 11.3 0.00 0.00 0.00 67 1005.0
20260505193047 28 163 3.2 16.1 0.00 0.00 0.00 69 1005.0
20260505192545 28 171 4.8 16.1 0.00 0.00 0.00 69 1005.0
20260505192045 27 161 4.8 16.1 0.00 0.00 0.00 70 1005.2
20260505191545 27 171 3.2 9.7 0.00 0.00 0.00 69 1005.3
20260505191043 27 193 1.6 9.7 0.00 0.00 0.00 70 1005.4
20260505190543 27 163 6.4 22.5 0.00 0.00 0.00 70 1005.5
20260505190048 27 240 8.0 22.5 0.00 0.00 0.00 69 1005.6
20260505185542 27 244 4.8 12.9 0.00 0.00 0.00 70 1005.6
20260505185042 27 194 6.4 12.9 0.00 0.00 0.00 71 1005.6
20260505184542 27 213 4.8 12.9 0.00 0.00 0.00 70 1005.7
20260505184041 27 234 4.8 12.9 0.00 0.00 0.00 71 1005.7
20260505183540 27 150 6.4 14.5 0.00 0.00 0.00 71 1005.8
20260505183047 26 169 6.4 14.5 0.00 0.00 0.00 71 1005.9
20260505182540 26 203 4.8 16.1 0.00 0.00 0.00 71 1006.0
20260505182040 27 215 4.8 16.1 0.00 0.00 0.00 72 1005.9
20260505181541 26 153 6.4 16.1 0.00 0.00 0.00 72 1005.9
20260505181042 27 178 4.8 16.1 0.00 0.00 0.00 71 1005.9
20260505180538 26 154 4.8 16.1 0.00 0.00 0.00 72 1005.9
20260505180038 26 161 9.7 16.1 0.00 0.00 0.00 72 1006.0
20260505175536 26 213 6.4 14.5 0.00 0.00 0.00 73 1006.1
20260505175036 26 196 4.8 12.9 0.00 0.00 0.00 73 1006.1
20260505174536 26 171 6.4 16.1 0.00 0.00 0.00 74 1006.1
20260505174034 25 161 4.8 12.9 0.00 0.00 0.00 75 1006.1
20260505173536 25 173 6.4 14.5 0.00 0.00 0.00 75 1006.2
20260505173041 25 238 8.0 14.5 0.00 0.00 0.00 75 1006.3
20260505172532 25 213 6.4 16.1 0.00 0.00 0.00 75 1006.3
20260505172031 25 188 8.0 16.1 0.00 0.00 0.00 75 1006.3
20260505171534 25 208 8.0 16.1 0.00 0.00 0.00 76 1006.3
20260505171029 25 260 8.0 16.1 0.00 0.00 0.00 76 1006.2
20260505170528 25 267 3.2 22.5 0.00 0.00 0.00 77 1006.3
20260505170034 25 225 4.8 14.5 0.00 0.00 0.00 78 1006.2
20260505165526 24 215 4.8 14.5 0.00 0.00 0.00 78 1006.3
20260505165025 24 229 4.8 16.1 0.00 0.00 0.00 78 1006.3
20260505164524 24 130 8.0 16.1 0.00 0.00 0.00 79 1006.3
20260505164023 23 168 4.8 16.1 0.00 0.00 0.00 79 1006.3
20260505163521 23 200 4.8 16.1 0.00 0.00 0.00 80 1006.4
20260505163021 23 191 6.4 17.7 0.00 0.00 0.00 80 1006.4
20260505162520 23 185 8.0 16.1 0.00 0.00 0.00 80 1006.4
20260505162018 23 228 4.8 12.9 0.00 0.00 0.00 81 1006.4
20260505161525 23 140 3.2 16.1 0.00 0.00 0.00 81 1006.5
20260505161017 23 189 6.4 16.1 0.00 0.00 0.00 81 1006.4
20260505160517 23 190 6.4 16.1 0.00 0.00 0.00 81 1006.5
20260505153011 22 215 4.8 14.5 0.00 0.00 0.00 83 1006.4
20260505152511 22 183 4.8 14.5 0.00 0.00 0.00 83 1006.4
20260505152010 22 176 6.4 16.1 0.00 0.00 0.00 83 1006.4
20260505151510 22 207 6.4 16.1 0.00 0.00 0.00 83 1006.4
20260505151008 22 148 4.8 14.5 0.00 0.00 0.00 84 1006.3
20260505150507 22 186 4.8 14.5 0.00 0.00 0.00 84 1006.3
20260505140600 21 194 6.4 14.5 0.00 0.00 0.00 85 1006.4
20260505140119 21 175 6.4 14.5 0.00 0.00 0.00 85 1006.4